CAPE
0 0 0 0 0 0 0 0 0 0 0 0 0 1 0 0 0 0 2 0 1 0 0 0 0 0 0 0 3 0 0 1 6 0 14 0 1 1 1 0 0 0 0
0 0 0 0 0 0 0 0 0 0 0 0 0 0 1 1 2 0 0 0 0 0 0 0 0 0 0 0 0 0 0 0 1 3 5 4 1 1 0 0 0 0 0
0 0 0 0 0 0 0 0 0 0 0 0 0 0 0 1 1 0 0 0 3 3 0 0 0 0 0 0 0 0 0 0 0 3 4 0 1 0 0 0 0 0 0
0 0 0 0 0 0 0 0 0 0 0 0 0 0 0 0 0 0 0 0 1 1 1 0 0 0 0 0 0 1 1 1 0 1 0 0 0 0 0 0 0 0 0
0 0 0 0 0 0 0 0 0 0 0 0 0 0 0 0 1 0 0 0 0 0 0 2 5 6 1 3 1 2 3 1 4 2 2 1 0 0 0 0 0 0 1
0 0 0 0 0 0 0 0 0 0 0 0 0 0 0 0 0 7 5 2 2 1 0 0 2 6 5 0 5 1 9 2 1 3 2 2 0 0 0 0 0 0 0
0 0 0 0 0 0 0 0 0 0 0 0 0 0 0 0 2 7 13 5 2 2 2 1 0 4 10 4 3 5 2 10 13 1 2 3 2 0 0 0 0 0 0
0 0 0 0 0 0 0 0 0 0 0 0 0 0 0 1 2 2 11 2 1 0 0 0 0 2 9 9 1 0 0 1 2 6 2 0 0 1 0 0 0 0 1
0 0 0 0 0 0 0 0 0 0 0 0 0 0 0 1 2 1 1 1 1 1 0 2 0 0 2 14 8 3 1 0 2 1 0 1 1 2 0 0 0 0 0
0 0 0 0 0 0 0 0 0 0 0 0 1 0 0 0 0 2 3 0 0 1 1 4 0 4 5 12 12 8 4 2 2 1 0 0 0 0 1 0 0 0 0
0 0 0 0 0 0 0 0 0 0 0 0 0 0 0 0 0 1 1 0 1 2 2 2 2 4 7 17 29 11 5 1 1 0 0 0 0 0 1 1 0 0 0
0 0 0 0 0 0 0 0 0 0 0 0 0 0 0 0 0 0 0 2 5 2 2 4 2 10 15 9 14 24 27 19 7 0 0 0 0 0 0 0 0 0 0
0 0 0 0 0 0 0 0 0 0 0 0 0 0 0 0 0 0 1 1 3 2 0 2 4 15 15 12 8 13 19 19 14 0 0 0 0 0 0 0 0 0 0
0 0 0 0 0 0 0 0 0 0 0 0 0 0 0 0 0 0 0 0 0 0 1 0 2 2 8 8 7 3 1 7 4 1 0 0 0 1 1 1 0 0 0
0 0 0 0 0 0 0 0 0 0 0 1 2 1 1 0 0 1 2 0 0 1 1 0 0 0 1 0 0 0 0 0 11 1 0 0 1 2 2 2 3 2 0
0 0 0 0 0 0 0 0 0 1 2 2 3 2 0 3 3 2 1 0 0 0 0 1 1 0 0 1 1 1 0 1 0 0 0 0 2 2 1 2 2 0 1
0 0 0 0 0 0 0 0 1 0 0 0 0 2 2 3 2 0 0 0 0 0 0 0 0 0 0 0 0 1 1 0 0 1 1 2 3 3 3 3 1 1 2
0 0 0 0 0 0 0 0 0 0 0 0 0 0 1 2 2 0 0 0 0 0 0 0 0 0 0 0 0 0 0 1 2 2 3 3 4 2 1 1 1 1 2
0 0 0 0 0 0 0 0 0 0 0 0 0 0 0 1 2 1 1 0 0 0 0 0 0 0 0 0 0 0 1 2 3 3 3 2 2 2 1 1 1 1 1
0 0 0 0 0 0 0 0 0 0 1 0 1 0 0 0 0 0 0 0 0 0 0 0 0 0 0 0 0 0 1 1 1 1 2 1 1 0 0 0 1 1 1
0 0 0 1 1 0 0 0 0 1 1 1 0 0 4 0 0 0 0 0 0 0 0 0 0 0 0 0 0 0 0 1 1 0 0 0 0 0 1 0 1 1 0
0 1 1 1 1 0 0 0 1 1 1 0 0 0 1 0 0 0 0 0 0 0 0 0 0 0 0 0 0 0 0 0 0 0 0 0 0 0 0 1 0 0 0
0 0 0 0 1 0 0 0 0 0 0 0 0 0 0 0 0 0 0 0 0 0 0 0 0 0 0 0 0 0 0 0 1 0 0 0 1 0 0 0 0 0 0
0 0 0 0 0 0 0 0 0 0 0 0 0 0 0 0 0 0 0 0 0 0 0 0 0 0 0 0 0 0 0 1 1 1 0 0 0 0 0 0 0 0 0
0 0 0 0 0 0 0 0 0 0 0 0 0 0 0 0 0 0 0 0 0 0 0 0 0 0 0 0 0 0 1 0 0 0 0 0 0 0 0 0 0 0 0
0 0 0 0 0 0 0 0 0 0 0 0 0 0 0 0 0 0 0 0 0 0 0 0 0 0 0 0 0 0 0 0 0 0 0 0 0 0 0 0 0 0 0
CIN
0 0 0 0 0 0 0 0 0 0 0 0 0 0 0 0 0 -1 -1 0 -1 -1 0 0 0 0 0 0 -2 0 0 0 -1 0 -1 0 0 0 0 0 0 0 0
0 0 0 0 0 0 0 0 0 0 0 0 0 -1 0 -1 -1 -1 0 -2 0 0 0 0 0 0 0 0 0 0 0 0 0 0 0 -17 0 0 0 0 0 0 0
0 0 0 0 0 0 0 0 0 0 0 0 0 0 0 0 -1 -1 -1 0 -1 -1 -1 0 0 0 0 0 0 -2 0 0 0 0 0 0 0 0 0 0 0 0 0
0 0 0 0 0 0 0 0 0 0 0 0 0 0 0 0 0 0 0 -2 -3 -4 -3 -3 0 0 0 0 0 -1 -2 -1 0 0 0 0 0 0 0 0 0 0 0
0 0 0 0 0 0 0 0 0 0 0 0 0 0 0 0 0 0 0 0 0 -4 -4 -4 -4 -3 -1 -1 -1 -1 -3 -1 0 0 0 -2 0 0 0 0 0 0 0
0 0 0 0 0 0 0 0 0 0 0 0 0 0 0 0 -1 -1 -1 0 -3 -3 0 -2 -6 -6 -1 -2 -1 -2 0 -2 -1 0 0 0 0 0 0 0 0 0 0
0 0 0 0 0 0 0 0 0 0 0 0 0 0 -1 0 0 0 0 0 0 -1 0 -2 0 -3 -1 -4 -2 -1 -2 0 -1 -1 0 0 0 0 0 0 0 0 0
0 0 0 0 0 0 0 0 0 0 0 0 0 0 0 -1 0 -1 0 -1 -1 0 0 0 0 -1 0 -4 -3 -3 -5 -6 -4 -2 -2 0 0 0 0 0 0 0 0
0 0 0 0 0 0 0 0 0 0 0 0 0 -1 -1 -2 -1 -1 -2 0 0 0 0 0 0 0 0 -1 -1 -2 -4 0 -2 -2 -1 -1 -1 0 0 0 0 0 0
0 0 0 0 0 0 0 0 0 0 0 0 -1 0 0 0 0 0 -1 0 0 0 0 0 -1 -1 -1 -1 -1 0 -1 -5 -7 -2 -1 0 0 0 0 0 0 0 0
0 0 0 0 0 0 0 0 0 0 -1 0 0 -1 0 0 0 -1 -2 -3 0 0 0 0 -4 -6 -1 -1 0 0 -3 -13 -9 -8 0 0 0 0 0 0 0 0 0
0 0 0 0 0 0 0 0 0 0 0 0 0 0 0 0 0 0 -1 -1 0 0 0 -1 0 -1 0 -1 0 0 0 0 -2 -7 0 0 0 0 0 0 0 0 0
0 0 0 0 0 0 -1 0 0 -1 0 0 0 0 0 0 0 -1 -1 -1 0 0 0 0 -4 0 0 0 -1 0 0 0 0 -1 -6 0 0 0 0 0 0 0 0
0 0 0 0 0 0 0 -2 0 0 0 0 0 0 -1 0 0 0 0 0 0 0 0 0 0 -5 0 0 0 0 -5 -1 -2 -3 0 0 0 0 0 0 0 0 0
0 0 0 0 0 0 -1 0 0 0 -1 -2 -1 0 0 0 0 -1 0 0 0 0 0 0 -3 -1 0 0 0 0 0 0 0 -4 0 0 0 0 0 0 0 0 0
0 0 0 -1 -2 0 0 0 0 -1 -1 -1 -1 -1 -1 -1 0 0 0 0 0 0 0 -1 -1 0 0 0 0 0 0 0 0 0 0 0 0 0 0 0 0 0 0
0 0 0 0 -1 0 0 0 0 0 0 0 0 0 0 0 0 0 0 0 0 0 0 0 0 0 0 0 0 0 0 0 0 0 0 0 0 0 0 0 0 0 0
0 0 -2 0 0 0 0 0 0 0 0 0 0 0 0 0 0 0 0 0 0 0 0 0 0 0 0 0 0 0 0 0 0 0 0 0 0 0 0 0 0 0 0
0 0 0 0 0 0 0 0 0 0 0 0 0 0 0 0 0 0 0 0 0 0 0 0 0 0 0 0 0 0 0 0 0 0 0 0 0 0 0 0 0 0 0
0 0 0 0 0 0 0 0 0 0 0 0 0 0 0 0 0 0 0 0 0 0 0 0 0 0 0 0 0 0 0 0 0 0 0 0 0 0 0 0 0 0 0
0 0 0 0 0 0 0 0 0 0 0 0 0 0 0 0 0 0 0 0 0 0 0 0 0 0 0 0 0 0 0 0 0 0 0 0 0 0 0 0 0 0 0
0 0 0 0 0 0 0 0 0 0 0 0 0 0 0 0 0 0 0 0 0 0 0 0 0 0 0 0 0 0 0 0 0 0 0 0 0 0 0 0 0 0 0
0 0 0 0 0 0 0 0 0 0 0 0 -1 0 0 0 0 0 0 0 0 0 0 0 0 0 0 0 0 0 0 0 0 0 0 0 0 0 0 0 0 0 0
0 0 0 0 0 0 0 0 0 0 0 0 0 0 0 0 0 0 0 0 0 0 0 0 0 0 0 0 0 0 0 0 0 0 0 0 0 0 0 0 0 0 0
0 0 0 0 0 0 0 0 0 0 0 0 0 0 0 0 0 0 0 0 0 0 0 0 0 0 0 0 0 0 0 0 0 0 0 0 0 0 0 0 0 0 0
0 0 0 0 0 0 0 0 0 0 0 0 0 0 0 0 0 0 0 0 0 0 0 0 0 0 0 0 0 0 0 0 0 0 0 0 0 0 0 0 0 0 0
Wind_Speed
43 41 40 38 37 37 36 35 35 37 39 42 41 38 38 36 34 34 25 32 34 35 35 36 36 35 35 35 35 33 36 36 39 42 33 30 30 27 25 24 25 27 27
41 40 39 38 38 38 36 36 36 37 40 41 41 40 38 36 33 33 36 33 35 36 36 36 36 35 36 36 36 37 36 36 37 37 35 29 29 28 25 25 24 23 24
39 39 38 38 38 37 37 37 37 38 40 41 40 41 39 37 36 35 34 35 35 35 36 36 36 35 36 35 35 36 37 37 37 37 37 31 28 26 27 24 24 23 21
40 39 38 37 37 37 37 37 38 39 40 41 41 41 39 38 37 36 35 35 34 35 35 35 35 35 35 36 36 36 35 37 38 40 40 35 34 28 26 26 25 22 21
40 39 38 37 36 38 40 41 42 41 41 41 42 41 39 38 36 34 34 34 35 35 36 35 35 34 35 35 35 35 35 36 36 37 37 35 34 33 30 26 25 21 20
39 38 38 38 39 39 40 42 42 42 42 42 42 41 40 37 37 38 39 37 36 36 36 36 35 36 37 38 38 38 35 36 38 38 37 36 35 35 31 29 22 23 23
38 38 38 40 41 41 42 43 44 43 43 44 43 41 40 39 40 40 40 38 37 36 37 36 37 35 35 35 35 37 38 39 40 38 39 38 36 32 31 30 28 25 23
39 39 41 41 42 43 43 43 43 42 42 42 42 41 41 38 39 39 39 37 37 37 37 37 37 36 35 35 35 35 36 37 37 37 39 39 35 31 30 29 28 24 19
40 41 42 42 43 43 42 42 41 40 41 41 39 39 39 38 38 38 38 35 35 37 36 36 37 38 37 38 37 37 36 37 36 36 36 37 36 36 27 23 25 24 24
41 42 42 42 42 41 40 39 38 38 40 40 39 38 40 39 39 39 38 34 35 36 36 35 37 37 38 38 38 37 38 38 36 36 37 39 40 38 30 26 24 25 23
40 41 42 41 41 39 38 36 35 39 40 42 41 38 37 36 37 37 37 35 35 36 36 36 35 37 39 40 41 38 37 35 37 36 35 36 38 38 33 28 25 23 24
41 42 42 41 40 38 35 32 33 38 38 37 34 34 35 35 35 36 36 37 37 38 38 37 38 38 38 39 39 40 40 37 34 35 35 35 36 38 32 28 25 22 21
43 43 42 40 38 35 33 25 32 33 33 28 29 33 31 29 32 33 34 35 37 38 37 37 37 38 38 39 40 39 38 36 36 36 36 34 31 28 23 21 19 17 16
43 42 42 39 37 34 28 15 30 29 26 23 22 24 26 26 24 25 29 33 35 38 39 38 36 36 36 35 35 38 38 36 36 34 33 30 26 23 24 24 19 16 16
42 41 40 37 33 30 21 21 26 25 23 23 24 24 23 21 20 25 29 31 31 34 36 34 34 33 34 35 36 37 35 36 36 32 28 28 26 24 23 22 19 18 17
41 40 38 35 32 24 22 26 24 24 25 24 24 22 21 22 23 24 27 26 27 26 28 31 33 34 34 35 35 35 35 36 35 29 28 27 26 24 23 21 18 16 12
39 37 34 32 29 14 26 25 26 26 23 22 22 22 23 22 23 24 26 26 26 25 26 28 31 32 32 32 33 34 35 34 29 29 29 26 24 22 21 19 17 14 12
36 33 31 27 20 17 24 24 22 24 24 24 24 22 21 21 20 20 21 20 19 20 22 25 28 29 29 29 28 28 28 27 28 28 27 26 25 23 21 21 16 13 15
35 32 29 25 11 21 23 23 22 23 23 23 22 21 20 21 20 18 17 16 16 17 19 22 24 27 26 24 24 23 23 25 26 24 24 24 22 20 19 16 18 20 14
34 31 29 22 14 21 22 25 24 24 24 22 21 21 20 19 19 18 16 15 15 16 17 19 22 24 27 27 25 24 24 25 25 23 21 18 18 18 19 19 18 16 14
34 29 21 13 18 20 23 26 25 24 24 23 22 21 23 21 18 15 13 12 11 11 12 13 15 21 27 29 30 29 27 24 21 20 22 19 16 16 17 16 15 15 14
34 32 16 12 16 22 26 26 25 25 25 23 21 22 23 18 15 13 10 7 7 8 9 10 15 17 19 22 25 26 23 24 25 22 17 16 17 16 16 15 14 13 12
37 40 37 32 27 27 26 26 25 25 25 22 21 21 19 16 14 10 8 6 5 6 9 9 10 11 13 14 17 21 22 22 22 18 16 16 16 15 13 13 13 12 11
39 38 36 35 33 30 27 26 25 25 24 21 20 18 17 16 13 11 8 6 4 3 4 6 7 8 11 14 15 17 17 16 16 15 14 13 13 12 12 11 10 11 10
39 38 36 35 34 30 27 26 25 25 24 21 19 17 16 14 13 11 9 6 4 3 3 1 4 6 7 10 11 13 14 13 12 11 10 11 12 12 11 11 11 10 9
37 37 36 35 33 31 29 26 25 24 24 20 18 17 16 14 12 10 9 7 5 5 4 4 4 5 6 7 8 9 9 9 8 9 9 11 12 11 10 11 11 9 9
Wind_Direction
343 343 343 343 342 340 339 338 337 334 329 319 318 317 314 316 318 314 324 306 294 287 282 277 274 273 270 269 266 265 262 260 258 253 261 261 257 257 262 266 266 266 268
343 343 343 343 342 339 338 337 336 333 327 321 316 313 311 313 318 317 306 306 296 286 283 278 274 272 268 267 265 261 260 260 257 255 256 257 258 257 261 265 268 274 274
343 343 343 342 341 339 338 336 335 332 327 323 318 312 310 311 310 311 309 304 295 289 283 279 275 272 268 266 264 261 260 259 258 255 253 256 260 260 259 264 268 273 279
343 343 343 342 341 340 338 337 334 330 327 322 318 314 311 309 309 308 306 302 297 289 285 281 277 273 268 266 263 261 260 258 256 252 253 254 252 257 260 260 263 271 272
343 343 343 342 341 339 336 333 330 327 324 322 317 314 311 308 309 308 306 301 296 291 283 281 277 274 270 266 264 262 259 256 254 253 253 253 252 250 253 259 260 266 273
344 344 343 342 340 338 336 333 330 327 324 320 316 313 310 308 304 301 297 297 294 288 284 279 277 272 267 265 262 260 260 255 253 251 251 251 253 249 249 249 255 258 263
345 344 343 341 339 338 336 333 330 328 324 319 314 311 307 304 298 295 293 292 290 287 282 279 274 274 270 267 264 260 258 255 253 252 249 248 252 253 249 247 250 255 259
345 344 343 341 339 337 335 333 331 329 326 321 316 311 305 303 298 295 293 293 288 285 282 278 273 270 270 265 263 260 257 255 253 252 250 248 251 254 251 248 247 250 260
345 344 343 341 339 338 337 335 333 331 327 323 319 313 306 301 298 296 296 295 289 283 280 277 273 268 265 260 258 257 256 253 252 252 250 247 247 248 251 247 243 241 250
345 344 343 341 340 339 338 337 336 332 327 323 317 311 297 292 291 288 289 291 285 281 278 276 270 266 261 257 255 254 252 250 249 249 249 246 243 244 247 245 241 241 245
346 344 343 343 342 341 340 339 337 332 324 304 296 298 290 286 289 286 285 285 282 279 275 273 270 264 258 254 249 251 251 250 246 246 246 246 242 241 242 241 243 245 243
347 345 345 345 344 343 342 342 341 299 291 291 284 284 298 293 283 282 279 277 276 270 271 272 267 261 257 252 249 246 244 246 246 243 244 244 241 237 239 240 243 248 250
348 347 347 346 346 346 346 343 333 288 286 275 274 284 277 271 275 274 270 265 269 271 272 268 264 260 255 250 245 243 242 242 243 241 241 242 242 240 237 236 240 242 251
349 349 350 350 350 350 351 339 287 283 276 268 266 266 269 267 260 259 264 270 262 267 265 265 261 258 254 252 247 243 241 240 239 240 239 241 239 236 231 234 232 237 243
352 352 353 353 354 355 354 289 287 279 272 271 271 268 266 261 257 261 264 267 267 256 255 261 257 254 250 248 245 242 240 237 235 236 237 235 232 231 232 229 229 234 240
354 355 356 358 360 2 300 296 289 283 282 277 273 267 264 261 264 261 265 259 266 268 256 245 243 246 246 244 241 238 236 234 233 233 233 231 228 227 225 226 228 233 229
357 358 0 3 5 329 301 299 299 299 292 286 281 279 276 271 271 269 269 265 256 249 239 233 236 237 239 239 237 235 233 232 230 228 228 226 224 223 220 223 226 226 224
0 2 5 7 9 305 300 298 295 295 297 296 296 290 285 282 278 275 271 259 242 227 224 221 223 234 237 237 235 233 229 224 222 222 221 220 220 219 219 220 221 211 216
4 7 10 13 351 302 300 299 297 296 295 294 295 295 293 291 287 283 274 253 236 223 220 215 200 207 222 231 229 225 220 215 213 212 213 213 213 213 216 213 217 214 204
7 10 13 17 312 304 303 304 303 302 300 298 298 296 293 292 294 291 280 266 253 243 226 216 207 208 200 206 209 208 206 204 203 204 205 205 210 210 207 206 204 197 195
10 14 15 13 306 305 304 307 306 304 302 301 299 299 308 305 298 290 281 273 253 242 224 220 214 192 181 182 184 187 192 196 197 200 203 203 197 190 192 188 181 180 170
12 14 341 328 308 307 310 309 308 308 307 305 304 309 315 310 304 296 284 253 227 209 216 209 192 192 195 192 190 189 191 191 191 191 185 177 173 168 169 170 170 167 164
8 344 332 324 316 315 314 314 313 312 312 309 311 315 317 316 312 300 287 259 231 209 187 192 191 189 189 188 188 187 183 182 181 172 156 154 159 161 161 157 154 155 150
4 341 334 333 329 324 319 318 316 317 318 315 317 319 323 323 322 318 309 301 283 263 207 182 173 168 169 170 172 173 172 168 165 161 154 146 145 144 138 140 145 142 144
1 344 339 338 333 327 322 322 321 323 323 322 321 323 324 325 329 331 333 334 340 356 23 123 153 144 136 143 145 150 152 150 153 150 144 132 127 127 130 134 138 142 141
360 346 345 341 337 333 330 326 326 327 328 325 324 323 326 327 329 331 335 339 349 9 30 50 72 100 110 110 122 131 133 132 130 122 122 118 119 125 129 128 130 133 131